When you browse on this site, cookies collect data to enhance your experience and personalize the content and advertising you see.
Visit our Privacy Policy to learn more. By continuing to use the site, you agree to this use of cookies and data.
  • In Schweiz
  • Länderverzeichnis
  • Für 7 Tage
  • Wassertemperatur
  • Satellitenkarten
  • Wetterkarte
  • Widgets
  • user-avatar
    Anmelden

    Stündliche Wetter Landau in der Pfalz

    Heute, 27 Mai, Montag

    Zeit Temperatur Niederschläge Wind Luftdruck Luftfeuchtigkeit
    00:00 +14°C° 0 mm 2 m/S 744 mmHg 86%
    01:00 +13°C° 0 mm 2 m/S 744 mmHg 88%
    02:00 +13°C° 0 mm 2 m/S 744 mmHg 88%
    03:00 +13°C° 0 mm 2 m/S 744 mmHg 88%
    04:00 +13°C° 0 mm 2 m/S 744 mmHg 88%
    05:00 +14°C° 0 mm 2 m/S 744 mmHg 86%
    06:00 +15°C° 0 mm 2 m/S 744 mmHg 84%
    07:00 +15°C° 0 mm 2 m/S 743 mmHg 81%
    08:00 +17°C° 0 mm 3 m/S 743 mmHg 76%
    09:00 +18°C° 0 mm 3 m/S 743 mmHg 71%
    10:00 +20°C° 0 mm 3 m/S 743 mmHg 66%
    11:00 +20°C° 0.2 mm 3 m/S 743 mmHg 68%
    12:00 +20°C° 0.2 mm 4 m/S 743 mmHg 70%
    13:00 +19°C° 0.2 mm 4 m/S 742 mmHg 72%
    14:00 +20°C° 0 mm 3 m/S 742 mmHg 71%
    15:00 +20°C° 0 mm 3 m/S 742 mmHg 69%
    16:00 +20°C° 0 mm 3 m/S 741 mmHg 68%
    17:00 +19°C° 0 mm 2 m/S 741 mmHg 72%
    18:00 +18°C° 0 mm 2 m/S 741 mmHg 75%
    19:00 +18°C° 0 mm 2 m/S 741 mmHg 79%
    20:00 +17°C° 0.1 mm 2 m/S 741 mmHg 83%
    21:00 +16°C° 0.1 mm 2 m/S 741 mmHg 87%
    22:00 +15°C° 0.1 mm 2 m/S 742 mmHg 90%
    23:00 +14°C° 0 mm 2 m/S 741 mmHg 91%

    Morgen, 28 Mai, Dienstag

    Zeit Temperatur Niederschläge Wind Luftdruck Luftfeuchtigkeit
    00:00 +14°C° 0 mm 1 m/S 741 mmHg 92%
    01:00 +13°C° 0 mm 1 m/S 741 mmHg 93%
    02:00 +13°C° 0.1 mm 1 m/S 741 mmHg 93%
    03:00 +13°C° 0.1 mm 1 m/S 741 mmHg 93%
    04:00 +13°C° 0.1 mm 1 m/S 741 mmHg 92%
    05:00 +13°C° 0.6 mm 2 m/S 741 mmHg 91%
    06:00 +12°C° 0.6 mm 3 m/S 741 mmHg 91%
    07:00 +12°C° 0.6 mm 3 m/S 741 mmHg 90%
    08:00 +13°C° 0 mm 4 m/S 741 mmHg 83%
    09:00 +14°C° 0 mm 4 m/S 742 mmHg 76%
    10:00 +14°C° 0 mm 5 m/S 742 mmHg 69%
    11:00 +15°C° 0.2 mm 4 m/S 742 mmHg 68%
    12:00 +17°C° 0.2 mm 4 m/S 742 mmHg 66%
    13:00 +17°C° 0.2 mm 3 m/S 742 mmHg 65%
    14:00 +17°C° 0.5 mm 4 m/S 742 mmHg 65%
    15:00 +17°C° 0.5 mm 4 m/S 742 mmHg 66%
    16:00 +18°C° 0.5 mm 4 m/S 742 mmHg 66%
    17:00 +17°C° 0.4 mm 3 m/S 742 mmHg 70%
    18:00 +16°C° 0.4 mm 3 m/S 743 mmHg 74%
    19:00 +15°C° 0.4 mm 2 m/S 743 mmHg 78%
    20:00 +14°C° 0.1 mm 2 m/S 743 mmHg 81%
    21:00 +13°C° 0.1 mm 2 m/S 744 mmHg 84%
    22:00 +10°C° 0.1 mm 2 m/S 745 mmHg 86%
    23:00 +11°C° 0 mm 1 m/S 745 mmHg 88%

    übermorgen, 29 Mai, Mittwoch

    Zeit Temperatur Niederschläge Wind Luftdruck Luftfeuchtigkeit
    00:00 +10°C° 0 mm 1 m/S 745 mmHg 89%
    01:00 +10°C° 0 mm 1 m/S 746 mmHg 90%
    02:00 +10°C° 0 mm 1 m/S 746 mmHg 91%
    03:00 +9°C° 0 mm 1 m/S 746 mmHg 92%
    04:00 +9°C° 0 mm 1 m/S 747 mmHg 93%
    05:00 +10°C° 0 mm 1 m/S 747 mmHg 91%
    06:00 +11°C° 0 mm 1 m/S 748 mmHg 88%
    07:00 +12°C° 0 mm 1 m/S 748 mmHg 86%
    08:00 +13°C° 0 mm 1 m/S 748 mmHg 81%
    09:00 +15°C° 0 mm 1 m/S 749 mmHg 76%
    10:00 +16°C° 0 mm 1 m/S 749 mmHg 71%
    11:00 +16°C° 0.1 mm 1 m/S 749 mmHg 68%
    12:00 +17°C° 0.1 mm 2 m/S 749 mmHg 66%
    13:00 +18°C° 0.1 mm 3 m/S 749 mmHg 63%
    14:00 +18°C° 0 mm 3 m/S 749 mmHg 63%
    15:00 +18°C° 0 mm 3 m/S 748 mmHg 62%
    16:00 +19°C° 0 mm 4 m/S 748 mmHg 61%
    17:00 +18°C° 0 mm 4 m/S 748 mmHg 64%
    18:00 +17°C° 0 mm 3 m/S 748 mmHg 67%
    19:00 +17°C° 0 mm 3 m/S 749 mmHg 71%
    20:00 +16°C° 0 mm 3 m/S 749 mmHg 75%
    21:00 +13°C° 0 mm 3 m/S 749 mmHg 79%
    22:00 +13°C° 0 mm 2 m/S 750 mmHg 83%
    23:00 +12°C° 0 mm 3 m/S 750 mmHg 82%

    30 Mai, Donnerstag

    Zeit Temperatur Niederschläge Wind Luftdruck Luftfeuchtigkeit
    00:00 +12°C° 0 mm 3 m/S 750 mmHg 82%
    01:00 +12°C° 0 mm 3 m/S 750 mmHg 81%
    02:00 +12°C° 0.3 mm 3 m/S 750 mmHg 84%
    03:00 +12°C° 0.3 mm 3 m/S 750 mmHg 87%
    04:00 +12°C° 0.3 mm 3 m/S 749 mmHg 89%
    05:00 +12°C° 0.9 mm 3 m/S 750 mmHg 90%
    06:00 +12°C° 0.9 mm 4 m/S 750 mmHg 91%
    07:00 +13°C° 0.9 mm 4 m/S 750 mmHg 93%
    08:00 +13°C° 0.8 mm 4 m/S 750 mmHg 93%
    09:00 +13°C° 0.8 mm 4 m/S 750 mmHg 93%
    10:00 +14°C° 0.8 mm 4 m/S 751 mmHg 93%
    11:00 +14°C° 0.1 mm 4 m/S 751 mmHg 92%
    12:00 +14°C° 0.1 mm 4 m/S 751 mmHg 91%
    13:00 +15°C° 0.1 mm 4 m/S 751 mmHg 91%
    14:00 +15°C° 0 mm 4 m/S 751 mmHg 89%
    15:00 +17°C° 0 mm 4 m/S 751 mmHg 87%
    16:00 +17°C° 0 mm 3 m/S 751 mmHg 85%
    17:00 +17°C° 0.1 mm 3 m/S 751 mmHg 86%
    18:00 +17°C° 0.1 mm 3 m/S 751 mmHg 87%
    19:00 +17°C° 0.1 mm 3 m/S 751 mmHg 88%
    20:00 +16°C° 0 mm 3 m/S 751 mmHg 90%
    21:00 +16°C° 0 mm 3 m/S 752 mmHg 91%
    22:00 +14°C° 0 mm 3 m/S 752 mmHg 93%
    23:00 +14°C° 0 mm 3 m/S 752 mmHg 93%

    31 Mai, Freitag

    Zeit Temperatur Niederschläge Wind Luftdruck Luftfeuchtigkeit
    00:00 +14°C° 0 mm 3 m/S 752 mmHg 93%
    01:00 +14°C° 0 mm 3 m/S 752 mmHg 93%
    02:00 +14°C° 0.1 mm 3 m/S 751 mmHg 93%
    03:00 +13°C° 0.1 mm 3 m/S 751 mmHg 93%
    04:00 +13°C° 0.1 mm 4 m/S 751 mmHg 93%
    05:00 +14°C° 0.1 mm 4 m/S 751 mmHg 92%
    06:00 +14°C° 0.1 mm 4 m/S 751 mmHg 91%
    07:00 +14°C° 0.1 mm 4 m/S 751 mmHg 90%
    08:00 +14°C° 0.3 mm 4 m/S 752 mmHg 90%
    09:00 +15°C° 0.3 mm 4 m/S 752 mmHg 90%
    10:00 +15°C° 0.3 mm 4 m/S 752 mmHg 90%
    11:00 +17°C° 0.1 mm 4 m/S 752 mmHg 85%
    12:00 +18°C° 0.1 mm 4 m/S 752 mmHg 79%
    13:00 +20°C° 0.1 mm 4 m/S 752 mmHg 73%
    14:00 +20°C° 0.6 mm 4 m/S 752 mmHg 73%
    15:00 +20°C° 0.6 mm 4 m/S 753 mmHg 72%
    16:00 +20°C° 0.6 mm 4 m/S 753 mmHg 72%
    17:00 +19°C° 0.3 mm 4 m/S 753 mmHg 73%
    18:00 +18°C° 0.3 mm 3 m/S 753 mmHg 73%
    19:00 +17°C° 0.3 mm 3 m/S 754 mmHg 74%
    20:00 +16°C° 0 mm 3 m/S 754 mmHg 76%
    21:00 +14°C° 0 mm 2 m/S 755 mmHg 79%
    22:00 +12°C° 0 mm 2 m/S 755 mmHg 81%
    23:00 +12°C° 0 mm 2 m/S 756 mmHg 82%

    1 Juni, Samstag

    Zeit Temperatur Niederschläge Wind Luftdruck Luftfeuchtigkeit
    00:00 +10°C° 0 mm 2 m/S 756 mmHg 84%
    01:00 +9°C° 0 mm 2 m/S 756 mmHg 85%
    02:00 +9°C° 0 mm 2 m/S 756 mmHg 86%
    03:00 +9°C° 0 mm 2 m/S 756 mmHg 87%
    04:00 +8°C° 0 mm 2 m/S 756 mmHg 88%
    05:00 +9°C° 0 mm 2 m/S 756 mmHg 85%
    06:00 +10°C° 0 mm 2 m/S 757 mmHg 81%
    07:00 +12°C° 0 mm 2 m/S 757 mmHg 78%
    08:00 +14°C° 0 mm 2 m/S 757 mmHg 72%
    09:00 +15°C° 0 mm 2 m/S 756 mmHg 65%
    10:00 +17°C° 0 mm 2 m/S 756 mmHg 59%
    11:00 +18°C° 0 mm 2 m/S 756 mmHg 54%
    12:00 +19°C° 0 mm 2 m/S 756 mmHg 49%
    13:00 +20°C° 0 mm 2 m/S 756 mmHg 45%
    14:00 +21°C° 0 mm 2 m/S 755 mmHg 44%
    15:00 +21°C° 0 mm 2 m/S 755 mmHg 44%
    16:00 +21°C° 0 mm 2 m/S 755 mmHg 43%
    17:00 +20°C° 0 mm 2 m/S 755 mmHg 49%
    18:00 +19°C° 0 mm 2 m/S 755 mmHg 54%
    19:00 +19°C° 0 mm 2 m/S 754 mmHg 59%
    20:00 +18°C° 0 mm 1 m/S 755 mmHg 63%
    21:00 +15°C° 0 mm 1 m/S 755 mmHg 67%
    22:00 +14°C° 0 mm 1 m/S 755 mmHg 72%
    23:00 +13°C° 0 mm 1 m/S 755 mmHg 75%
    Mehr zeigen